Location: Newark
(42.8481°N, 0.4872°E)
Time: 23:20:23
(UTC+00:00)

SR - Pass Details

Date: 06 November 2020
Orbit: 579 x 876 km, 66.7° (Epoch: 29 November)

Event Time Altitude Azimuth Distance (km) Brightness Sun altitude
Rises 01:50:25 0° 268° (W) 2,809 - -51.7°
Reaches altitude 10° 01:54:04 10° 301° (WNW) 1,947 - -51.1°
Maximum altitude 01:55:43 12° 323° (NW) 1,847 - -50.9°
Drops below altitude 10° 01:57:24 10° 346° (NNW) 1,994 - -50.6°
Sets 02:01:16 0° 18° (NNE) 2,972 - -50.0°
